GFSFLT2_700_temp_273.txt.gz
Temp
10 10 10 10 10 10 10 10 9 9 9 9 9 9 9 8 8 8 8 8 8 8 8 8 8 8 8 8 8 8 8 8
11 10 10 10 10 10 10 10 10 9 9 9 9 9 9 9 8 8 8 8 8 8 8 8 8 8 8 8 8 8 7 7
12 12 11 11 10 10 10 10 10 10 10 9 9 9 9 9 9 8 8 8 8 8 8 8 7 7 7 7 8 8 8 7
12 12 11 11 10 10 10 10 10 10 10 9 9 9 9 9 9 9 8 8 8 8 8 7 7 7 7 7 7 7 7 7
12 12 12 11 11 11 10 10 10 10 10 10 10 9 9 9 9 9 9 8 8 8 8 8 7 7 7 7 7 7 7 7
12 12 12 12 11 11 11 11 10 10 10 10 10 10 9 9 9 9 9 8 8 8 8 8 8 8 7 7 7 7 7 7
12 12 12 12 12 11 11 11 11 10 10 10 10 10 9 9 9 9 9 9 8 8 8 8 8 8 8 8 7 7 7 7
12 12 12 12 12 12 12 11 11 11 11 10 10 10 10 10 9 9 9 9 8 8 8 8 8 8 8 8 7 7 7 7
11 11 11 12 12 12 12 12 11 11 11 11 11 10 10 10 10 9 9 9 9 9 8 8 8 8 8 8 8 8 8 8
12 12 11 11 11 12 12 12 11 11 11 11 11 10 10 10 10 10 9 9 9 9 9 9 8 8 8 8 8 8 8 7
12 12 12 12 11 11 11 12 11 11 11 11 11 11 10 10 10 10 9 9 9 9 9 9 8 8 8 8 8 8 7 7
12 12 12 12 12 11 11 11 11 11 11 11 11 11 10 10 10 9 9 9 9 9 8 8 8 8 8 8 8 8 8 7
12 12 13 12 12 12 12 12 11 11 11 11 11 10 10 9 8 6 8 8 8 8 8 8 8 8 8 8 8 8 8 8
12 13 13 13 13 13 12 12 12 12 11 11 11 10 9 7 7 7 8 8 7 7 7 8 8 8 7 8 9 8 8 8
12 12 13 14 13 13 13 12 12 12 12 12 12 11 9 8 6 6 7 7 7 5 6 7 9 9 7 8 8 9 9 9
11 12 13 13 13 13 13 12 12 12 12 12 12 12 10 8 6 7 7 6 6 6 7 8 8 8 8 9 8 8 8 9
11 12 12 12 13 13 13 12 12 12 12 12 12 12 11 9 8 8 7 7 7 7 8 8 8 8 8 8 8 8 8 7
9 10 11 12 12 12 12 12 12 12 12 11 11 11 11 10 8 8 7 7 8 7 9 8 8 8 8 8 7 7 7 7
9 10 11 11 12 12 12 12 12 11 11 11 11 11 10 9 8 8 7 8 8 8 9 8 8 8 7 7 7 7 7 6
8 10 11 10 11 11 11 11 11 11 10 11 11 9 8 7 7 7 8 8 8 8 8 8 8 7 7 7 7 7 7 7

GFSFLT2_700_temp_279.txt.gz
Temp
12 11 11 10 10 10 10 10 10 9 9 9 9 9 9 9 9 8 8 8 8 8 8 8 8 8 8 8 8 8 8 8
13 12 11 11 10 10 10 10 10 9 9 9 9 9 9 9 9 9 8 8 8 8 8 8 8 8 8 8 8 7 7 8
13 13 13 12 11 10 10 10 10 9 9 9 9 9 9 9 9 8 8 8 8 8 8 8 7 7 7 8 8 8 8 8
12 13 13 12 11 11 10 10 10 10 10 10 9 9 9 9 9 8 8 8 8 8 8 7 8 7 8 8 8 8 8 8
12 12 12 12 12 11 11 10 10 10 10 10 9 9 9 9 9 9 8 8 8 8 8 7 7 7 7 8 8 8 8 8
12 12 12 12 12 11 11 11 10 10 10 10 9 9 9 9 9 9 9 8 8 8 8 8 8 8 7 7 8 8 8 8
10 11 12 12 12 11 11 11 11 11 10 10 10 10 9 9 9 9 8 8 8 8 7 8 8 8 8 8 8 8 7 7
11 10 12 12 12 11 11 11 11 11 11 10 10 10 9 9 9 9 8 8 8 8 7 7 8 8 8 8 8 8 8 8
10 11 12 12 12 12 11 11 11 11 11 11 10 10 10 9 9 9 8 8 8 8 7 8 8 8 8 8 8 8 8 8
10 10 12 12 12 11 11 11 11 11 11 11 11 11 10 9 9 9 9 8 8 8 8 8 8 8 8 8 8 8 8 8
11 9 11 12 12 11 11 11 11 11 11 11 11 11 11 10 10 9 9 8 8 8 8 7 7 7 7 8 8 8 8 8
11 11 11 11 12 12 12 11 12 12 12 11 11 11 11 11 10 10 9 9 8 8 7 7 7 7 7 7 8 8 8 8
10 10 10 10 10 11 11 11 11 12 12 11 11 11 11 11 11 10 10 10 9 9 8 7 6 6 6 7 7 7 8 8
9 9 9 9 10 10 10 11 11 11 11 12 12 11 11 11 11 11 10 9 9 7 7 8 7 6 6 6 6 7 8 8
7 8 8 9 9 9 9 10 10 11 11 12 12 12 12 11 11 11 11 9 9 8 8 7 8 6 5 6 5 6 7 8
7 7 7 8 8 9 9 10 10 10 11 11 11 12 12 12 11 11 11 10 9 8 8 8 8 7 7 6 6 6 6 7
6 6 6 7 7 7 8 9 10 10 10 11 11 10 11 12 12 11 10 10 9 8 7 7 7 6 6 6 6 6 5 6
6 6 6 6 6 7 8 8 9 10 10 10 10 10 10 12 11 11 10 10 9 9 7 6 6 6 5 5 5 5 5 5
5 5 5 6 6 6 6 7 8 9 9 9 9 8 7 8 10 11 10 10 10 9 9 7 6 5 5 4 5 6 5 5
5 4 4 5 5 6 6 6 6 7 7 7 7 6 7 7 8 8 8 8 8 8 8 7 6 5 4 4 4 4 4 5

GFSFLT2_700_temp_285.txt.gz
Temp
12 12 12 12 11 11 11 11 11 10 10 10 10 9 9 9 9 9 9 9 9 9 8 8 8 8 8 8 8 8 8 8
12 12 13 12 12 11 11 10 10 10 10 10 9 9 9 9 9 9 9 9 8 8 8 8 8 8 8 8 8 8 8 8
12 12 12 12 13 12 11 11 10 10 10 10 10 10 9 9 9 9 9 9 9 8 8 8 8 8 8 8 8 8 8 8
12 12 12 12 12 12 12 12 11 10 10 10 10 10 10 9 9 9 9 9 9 9 8 8 8 8 8 8 8 8 8 8
12 12 12 12 12 12 12 12 12 11 10 10 10 10 10 10 9 9 9 9 9 9 9 8 8 8 8 8 8 8 8 8
11 10 11 11 11 11 11 11 12 12 11 10 10 10 10 10 10 9 9 9 9 9 9 8 8 8 8 8 8 8 8 8
10 9 10 10 10 10 10 10 11 11 11 10 10 10 10 9 9 9 10 9 9 9 9 8 8 8 8 8 8 8 8 8
10 9 10 9 9 10 10 9 10 10 10 10 10 10 10 10 9 9 9 9 9 9 9 9 8 8 8 8 8 8 9 9
11 11 11 9 9 8 8 8 8 9 10 10 10 10 10 10 10 10 9 10 9 9 9 9 9 8 8 8 8 8 8 8
10 10 9 9 9 9 8 7 7 7 9 10 11 11 10 10 10 10 10 9 9 9 9 9 9 9 9 9 8 8 8 8
9 9 9 9 8 8 8 8 8 6 7 7 9 10 10 10 10 10 9 9 9 9 9 9 9 9 9 9 9 9 8 8
8 8 8 8 7 7 7 7 7 7 7 7 8 8 9 9 10 10 10 9 9 9 9 9 10 10 9 9 9 9 9 9
7 7 7 7 7 7 7 7 6 7 7 7 8 8 8 8 9 10 10 10 10 9 9 8 9 10 9 8 9 9 9 9
7 6 6 6 6 6 6 7 7 7 7 7 7 8 7 8 8 9 10 10 10 10 10 9 9 8 8 8 8 8 9 9
6 4 5 4 5 5 5 5 5 6 6 6 6 6 7 7 8 8 9 9 10 10 10 9 9 9 8 7 7 8 8 8
5 5 4 4 4 4 4 4 5 5 6 6 7 6 6 6 7 7 8 8 9 10 10 10 8 9 8 7 7 7 7 7
3 3 3 4 4 5 4 4 4 4 4 5 6 5 5 6 6 7 6 6 8 9 9 8 9 6 7 8 7 7 6 6
2 3 4 4 4 4 3 3 3 3 4 4 5 5 5 5 5 6 6 7 6 7 7 6 6 5 6 6 8 7 6 5
-1 -1 1 2 2 2 2 2 3 3 3 3 4 4 4 5 5 5 5 6 6 6 6 5 6 5 5 5 6 6 6 6
-1 -2 -2 -2 -2 -0 1 1 2 2 2 1 2 3 3 4 4 5 5 4 5 5 6 5 5 6 5 5 6 6 5 4

GFSFLT2_700_temp_288.txt.gz
Temp
12 12 12 12 13 12 12 11 11 11 11 11 10 10 10 10 10 9 9 9 9 9 9 9 9 8 8 8 8 8 8 8
12 12 12 12 12 12 12 12 11 11 11 11 11 10 10 10 10 9 9 9 9 8 8 8 8 8 8 8 8 8 8 8
12 12 12 12 12 12 12 12 11 11 10 10 10 10 10 10 10 10 9 9 9 8 8 8 8 8 8 8 8 8 8 8
11 11 10 11 11 11 12 12 12 11 10 10 10 10 10 10 9 9 9 9 9 9 9 8 8 8 8 8 8 8 8 8
10 11 10 9 10 10 10 10 11 11 10 10 10 9 9 9 9 9 9 9 9 9 9 9 9 8 8 8 8 8 8 8
11 11 11 11 10 10 9 9 9 9 10 9 9 9 9 9 9 9 9 9 9 9 9 9 9 8 8 8 8 8 8 8
11 11 11 10 10 9 9 8 9 8 8 8 9 9 9 9 9 9 9 9 9 9 9 9 9 8 8 8 8 8 8 8
11 10 10 10 10 9 9 8 9 9 9 8 8 8 8 8 8 9 9 8 8 9 8 8 8 8 8 8 8 8 8 8
11 11 10 10 9 9 8 9 9 8 8 7 7 7 8 8 8 8 9 9 9 8 8 8 8 8 9 8 8 8 8 8
9 9 9 9 9 9 9 8 8 7 7 6 6 6 6 6 7 8 8 8 9 9 9 9 9 9 9 9 8 8 8 8
10 9 9 9 8 8 7 8 8 7 6 6 4 4 5 5 5 6 7 8 8 8 8 8 9 9 9 9 9 8 8 8
9 9 9 9 8 7 6 6 6 6 5 5 5 5 6 5 6 6 7 7 8 8 8 8 8 9 9 9 9 8 8 8
8 8 8 8 8 7 6 6 6 6 6 5 5 5 5 5 5 6 8 8 8 8 8 8 8 8 8 8 8 9 8 8
7 6 6 6 6 7 6 4 4 5 5 5 4 4 4 5 5 7 7 7 7 7 8 9 8 8 8 7 8 9 9 9
6 5 5 5 5 6 6 5 5 5 5 6 5 5 4 5 4 5 6 6 7 7 7 7 7 7 7 6 6 8 9 9
2 3 3 4 4 4 4 4 5 5 5 5 5 5 5 5 5 4 5 5 6 6 6 6 6 6 6 5 6 6 7 7
0 0 0 1 1 2 3 3 3 3 3 3 3 3 4 4 4 4 4 5 5 5 5 5 4 4 5 5 4 6 6 6
0 -0 -1 -1 -1 -1 -1 -1 -1 -0 1 2 2 2 2 3 3 4 4 4 4 5 5 4 4 6 4 4 5 5 6 5
-1 -2 -3 -3 -3 -3 -3 -2 -1 -1 -1 -1 -0 1 -1 0 2 3 3 3 4 5 5 5 5 4 3 6 5 5 5 5
-2 -3 -3 -4 -4 -4 -3 -3 -2 -3 -3 -2 -2 -3 -2 -1 1 2 3 4 4 4 4 5 5 4 4 5 4 5 4 5